Regional Weather Roundup
Issued by NWS Midland/Odessa, TX

Skip options and go directly to product.
Home | Oldest Version | Next Version | Current Version | All | Text Only | Save Text | Print | Product List | Glossary On

Skip product version selection by date and time.   
153
ASUS44 KMAF 241502
RWRMAF
MIDLAND AREA WEATHER ROUNDUP
NATIONAL WEATHER SERVICE MIDLAND TX
1000 AM CDT THU JUL 24 2014

...IN SOUTHWEST TEXAS AND SOUTHEAST NEW MEXICO...

CITY           SKY/WX    TMP DP  RH WIND       PRES   REMARKS
ALPINE         SUNNY     79  56  43 S3        30.31R
ANDREWS        FAIR      84  61  46 S5        30.19S
ARTESIA        SUNNY     81  54  39 NE3       30.22S
BIG SPRING     SUNNY     84  62  47 S5        30.18R
CARLSBAD       SUNNY     83  57  41 CALM      30.18S
DRYDEN           N/A     87  64  46 E6        30.10S
FORT STOCKTON  SUNNY     84  58  40 S7        30.17R
GUAD PASS      SUNNY     78  56  46 VRB7      30.35R
HOBBS          SUNNY     82  59  44 S8        30.23S
MARFA          SUNNY     77  54  44 S6        30.31S
MIDLAND AIRPK  SUNNY     84  63  48 S3        30.17S
MIDLAND INTL   SUNNY     84  63  49 VRB6      30.16S
ODESSA           N/A    N/A N/A N/A MISG      30.18S
PECOS          NOT AVBL
PRESIDIO       FAIR      86  58  38 SE6       30.14S
SEMINOLE       SUNNY     82  60  46 SW6       30.21R
SNYDER         SUNNY     83  63  51 SW6       30.16R
WINK           SUNNY     85  62  46 SE7       30.14S
$$
...OTHER STATIONS IN TEXAS...

CITY           SKY/WX    TMP DP  RH WIND       PRES   REMARKS
ABILENE        MOSUNNY   85  67  54 CALM      30.11S
AMARILLO       SUNNY     83  63  50 SW13      30.21S
AUSTIN         CLOUDY    77  75  93 CALM      30.05F FOG
BROWNSVILLE    MOSUNNY   86  75  69 S12       30.00S
CORPUS CHRISTI PTSUNNY   84  75  74 VRB3      30.02R
DALLAS FTW     PTSUNNY   83  69  62 VRB6      30.08R
DEL RIO        MOSUNNY   86  68  54 E6        30.04R
EL PASO        MOSUNNY   81  53  37 N3        30.21R
HOUSTON INT    MOSUNNY   82  72  71 VRB5      30.03S
LUBBOCK        MOSUNNY   83  62  49 SW14      30.20S
SAN ANGELO     PTSUNNY   82  66  58 CALM      30.11R
SAN ANTONIO    CLOUDY    83  69  62 NW5       30.06S
WACO           MOSUNNY   82  70  66 SE5       30.07S
WICHITA FALLS  NOT AVBL
$$
...OTHER LOCATIONS IN NEW MEXICO...

CITY           SKY/WX    TMP DP  RH WIND       PRES   REMARKS
ALAMAGORDO     MOSUNNY   79  50  36 W3        30.25S
ALBUQUERQUE    MOSUNNY   77  51  40 N3        30.34S
CANNON AFB     SUNNY     80  59  48 SW13      30.27S
CLOVIS         SUNNY     79  59  50 SW13      30.29
HOLLOMAN AFB   MOSUNNY   84  50  30 SW3       30.23S
ROSWELL        SUNNY     82  55  39 SE3       30.22S
RUIDOSO        SUNNY     70  48  46 MISG      30.46S
SANTA FE       SUNNY     73  51  46 CALM      30.39F
TRUTH OR CONSE SUNNY     78  52  40 CALM      30.28S
TUCUMCARI      SUNNY     82  58  43 W7        30.23S
$$

USA.gov is the U.S. government's official web portal to all federal, state and local government web resources and services.